Location: Recife
(8.0585°S, 34.8848°W)
Time: 12:29:08
(UTC-03:00)

Vanguard 2 - Pass Details

Date: 17 April 2026
Orbit: 553 x 2895 km, 32.9° (Epoch: 13 May)

Event Time Altitude Azimuth Distance (km) Brightness Sun altitude
Rises 21:41:23 0° 272° (W) 5,527 12.3 -65.8°
Reaches altitude 10° 21:45:03 10° 264° (W) 4,816 11.8 -66.7°
Enters shadow 21:49:29 23° 250° (WSW) 4,134 11.2 -67.8°
